Location: Gowrie
(35.4119°S, 149.1090°E)
Time: 01:38:52
(UTC+11:00)

ISS - Visible Passes

Search period start: 28 March 2017 00:00
Search period end: 06 April 2017 23:00
Orbit: 399 x 409 km, 51.6° (Epoch: 27 March)

Date Brightness Start Highest point End Pass type
(mag) Time Alt. Az. Time Alt. Az. Time Alt. Az.
31 Mar -1.4 06:29:45 10° N 06:32:30 24° NE 06:35:15 10° ESE visible
01 Apr -0.7 05:39:02 10° NNE 05:40:16 12° NE 05:41:31 10° ENE visible
02 Apr -3.5 05:20:44 11° NW 05:23:55 68° NE 05:27:15 10° SE visible
03 Apr -2.2 04:31:11 29° NE 04:31:33 30° NE 04:34:34 10° ESE visible
04 Apr -3.3 05:14:08 28° W 05:15:28 43° SW 05:18:41 10° SE visible
05 Apr -2.2 04:24:15 35° SE 04:24:15 35° SE 04:26:18 10° SE visible
06 Apr -2.1 05:06:54 20° SW 05:07:06 21° SSW 05:09:43 10° SSE visible
